| time (UTC) | temp F | wind direction | speed MPH | gust MPH | rain 1hr in | rain 24hr in | rain mn in | humidity % | barometer mb |
| 20260901100957 | 66 | 0.0 | 0.0 | 0.00 | 0.00 | 0.00 | 92 | 1016.6 | |
| 20260901100017 | 66 | 0.0 | 0.0 | 0.00 | 0.00 | 0.00 | 91 | 1016.6 | |
| 20260901095003 | 66 | 0.0 | 0.0 | 0.00 | 0.00 | 0.00 | 91 | 1016.6 | |
| 20260901094023 | 66 | 0.0 | 0.0 | 0.00 | 0.00 | 0.00 | 91 | 1016.6 | |
| 20260901093009 | 66 | 0.0 | 0.0 | 0.00 | 0.00 | 0.00 | 91 | 1016.7 | |
| 20260901091955 | 66 | 0.0 | 0.0 | 0.00 | 0.00 | 0.00 | 91 | 1016.7 | |
| 20260901091015 | 66 | 0.0 | 0.0 | 0.00 | 0.00 | 0.00 | 90 | 1016.8 | |
| 20260901090001 | 66 | 0.0 | 0.0 | 0.00 | 0.00 | 0.00 | 90 | 1016.7 | |
| 20260901085020 | 66 | 0.0 | 0.0 | 0.00 | 0.00 | 0.00 | 90 | 1016.8 | |
| 20260901084007 | 66 | 0.0 | 0.0 | 0.00 | 0.00 | 0.00 | 90 | 1016.8 | |
| 20260901083026 | 66 | 0.0 | 0.0 | 0.00 | 0.00 | 0.00 | 90 | 1016.9 | |
| 20260901082012 | 66 | 0.0 | 0.0 | 0.00 | 0.00 | 0.00 | 89 | 1017.1 | |
| 20260901080958 | 66 | 0.0 | 0.0 | 0.00 | 0.00 | 0.00 | 89 | 1017.1 | |
| 20260901080018 | 66 | 0.0 | 0.0 | 0.00 | 0.00 | 0.00 | 89 | 1017.2 | |
| 20260901075004 | 66 | 0.0 | 0.0 | 0.00 | 0.00 | 0.00 | 89 | 1017.4 | |
| 20260901074023 | 66 | 0.0 | 0.0 | 0.00 | 0.00 | 0.00 | 89 | 1017.4 | |
| 20260901073009 | 66 | 0.0 | 0.0 | 0.00 | 0.00 | 0.00 | 89 | 1017.5 | |
| 20260901072028 | 66 | 0.0 | 0.0 | 0.00 | 0.00 | 0.00 | 89 | 1017.6 | |
| 20260901071015 | 66 | 0.0 | 0.0 | 0.00 | 0.00 | 0.00 | 89 | 1017.4 | |
| 20260901070000 | 66 | 0.0 | 0.0 | 0.00 | 0.00 | 0.00 | 89 | 1017.5 | |
| 20260901065020 | 66 | 0.0 | 0.0 | 0.00 | 0.00 | 0.00 | 89 | 1017.6 | |
| 20260901064006 | 66 | 0.0 | 0.0 | 0.00 | 0.00 | 0.00 | 89 | 1017.8 | |
| 20260901063026 | 66 | 0.0 | 0.0 | 0.00 | 0.00 | 0.00 | 89 | 1017.7 | |
| 20260901062012 | 66 | 0.0 | 0.0 | 0.00 | 0.00 | 0.00 | 89 | 1017.5 | |
| 20260901060958 | 66 | 0.0 | 0.0 | 0.00 | 0.00 | 0.00 | 89 | 1017.6 | |
| 20260901060018 | 66 | 0.0 | 0.0 | 0.00 | 0.00 | 0.00 | 89 | 1017.6 | |
| 20260901055024 | 66 | 0.0 | 0.0 | 0.00 | 0.00 | 0.00 | 88 | 1017.6 | |
| 20260901054043 | 66 | 0.0 | 0.0 | 0.00 | 0.00 | 0.00 | 88 | 1017.6 | |
| 20260901053010 | 66 | 0.0 | 0.0 | 0.00 | 0.00 | 0.00 | 88 | 1017.6 | |
| 20260901052029 | 66 | 0.0 | 0.0 | 0.00 | 0.00 | 0.00 | 87 | 1017.6 | |
| 20260901051015 | 66 | 0.0 | 0.0 | 0.00 | 0.00 | 0.00 | 86 | 1017.9 | |
| 20260901050002 | 66 | 0.0 | 0.0 | 0.00 | 0.00 | 0.00 | 86 | 1017.9 | |
| 20260901045041 | 66 | 0.0 | 0.0 | 0.00 | 0.00 | 0.00 | 86 | 1017.8 | |
| 20260901043934 | 66 | 0.0 | 0.0 | 0.00 | 0.00 | 0.00 | 87 | 1017.8 | |
| 20260901043026 | 66 | 0.0 | 0.0 | 0.00 | 0.00 | 0.00 | 87 | 1017.7 | |
| 20260901042013 | 66 | 0.0 | 0.0 | 0.00 | 0.00 | 0.00 | 87 | 1017.8 | |
| 20260901041019 | 66 | 0.0 | 0.0 | 0.00 | 0.00 | 0.00 | 87 | 1017.9 | |
| 20260901040018 | 66 | 0.0 | 0.0 | 0.00 | 0.00 | 0.00 | 87 | 1017.9 | |
| 20260901035044 | 66 | 286 | 0.0 | 1.0 | 0.00 | 0.00 | 0.00 | 87 | 1017.9 |
| 20260901034024 | 66 | 0.0 | 0.0 | 0.00 | 0.00 | 0.00 | 87 | 1018.0 | |
| 20260901033011 | 66 | 290 | 0.0 | 1.0 | 0.00 | 0.00 | 0.00 | 87 | 1018.0 |
| 20260901032030 | 66 | 0.0 | 0.0 | 0.00 | 0.00 | 0.00 | 87 | 1017.9 | |
| 20260901031016 | 66 | 0.0 | 0.0 | 0.00 | 0.00 | 0.00 | 87 | 1017.9 | |
| 20260901030002 | 66 | 0.0 | 0.0 | 0.00 | 0.00 | 0.00 | 87 | 1018.1 | |
| 20260901025022 | 66 | 287 | 0.0 | 1.0 | 0.00 | 0.00 | 0.00 | 87 | 1017.8 |
| 20260901023902 | 66 | 247 | 1.0 | 1.0 | 0.00 | 0.00 | 0.00 | 87 | 1017.8 |
| 20260901022921 | 66 | 0.0 | 0.0 | 0.00 | 0.00 | 0.00 | 87 | 1018.0 | |
| 20260901021907 | 67 | 0.0 | 0.0 | 0.00 | 0.00 | 0.00 | 86 | 1018.0 | |
| 20260901020927 | 67 | 0.0 | 2.0 | 0.00 | 0.00 | 0.00 | 86 | 1018.0 | |
| 20260901015913 | 67 | 292 | 0.0 | 1.0 | 0.00 | 0.00 | 0.00 | 85 | 1017.9 |
| 20260901014932 | 67 | 288 | 0.0 | 1.0 | 0.00 | 0.00 | 0.00 | 85 | 1018.3 |
| 20260901013918 | 68 | 0.0 | 1.0 | 0.00 | 0.00 | 0.00 | 84 | 1018.0 | |
| 20260901012938 | 68 | 0.0 | 0.0 | 0.00 | 0.00 | 0.00 | 84 | 1018.1 | |
| 20260901011923 | 68 | 0.0 | 1.0 | 0.00 | 0.00 | 0.00 | 83 | 1018.1 | |
| 20260901010908 | 68 | 290 | 0.0 | 1.0 | 0.00 | 0.00 | 0.00 | 83 | 1018.1 |
| 20260901005947 | 68 | 255 | 1.0 | 2.0 | 0.00 | 0.00 | 0.00 | 83 | 1018.1 |
| 20260901004933 | 68 | 285 | 1.0 | 1.0 | 0.00 | 0.00 | 0.00 | 83 | 1018.0 |
| 20260901003932 | 69 | 297 | 0.0 | 1.0 | 0.00 | 0.00 | 0.00 | 82 | 1018.0 |
| 20260901002918 | 69 | 0.0 | 0.0 | 0.00 | 0.00 | 0.00 | 82 | 1017.8 | |
| 20260901001938 | 69 | 263 | 1.0 | 1.0 | 0.00 | 0.00 | 0.00 | 81 | 1017.9 |
| 20260901000944 | 70 | 287 | 1.0 | 2.0 | 0.00 | 0.00 | 0.00 | 80 | 1017.8 |
| 20260831235931 | 70 | 286 | 1.0 | 2.0 | 0.00 | 0.00 | 0.00 | 80 | 1017.9 |
| 20260831234950 | 70 | 280 | 0.0 | 2.0 | 0.00 | 0.00 | 0.00 | 79 | 1018.0 |
| 20260831233916 | 70 | 280 | 0.0 | 1.0 | 0.00 | 0.00 | 0.00 | 79 | 1017.9 |
| 20260831232935 | 70 | 285 | 0.0 | 1.0 | 0.00 | 0.00 | 0.00 | 78 | 1017.9 |
| 20260831231922 | 70 | 0.0 | 1.0 | 0.00 | 0.00 | 0.00 | 77 | 1018.1 | |
| 20260831231001 | 71 | 290 | 0.0 | 1.0 | 0.00 | 0.00 | 0.00 | 76 | 1018.1 |
| 20260831225926 | 71 | 286 | 1.0 | 2.0 | 0.00 | 0.00 | 0.00 | 75 | 1018.0 |
| 20260831224912 | 71 | 0.0 | 0.0 | 0.00 | 0.00 | 0.00 | 74 | 1018.1 | |
| 20260831223932 | 72 | 293 | 1.0 | 2.0 | 0.00 | 0.00 | 0.00 | 73 | 1018.0 |
| 20260831222918 | 73 | 279 | 0.0 | 1.0 | 0.00 | 0.00 | 0.00 | 71 | 1017.9 |
| 20260831221958 | 75 | 269 | 1.0 | 2.0 | 0.00 | 0.00 | 0.00 | 67 | 1018.1 |
| 20260831220924 | 75 | 271 | 0.0 | 1.0 | 0.00 | 0.00 | 0.00 | 63 | 1017.9 |
| 20260831220023 | 76 | 277 | 0.0 | 1.0 | 0.00 | 0.00 | 0.00 | 61 | 1017.9 |
| 20260831214929 | 76 | 0.0 | 0.0 | 0.00 | 0.00 | 0.00 | 60 | 1018.1 | |
| 20260831213936 | 77 | 0.0 | 0.0 | 0.00 | 0.00 | 0.00 | 59 | 1018.0 | |
| 20260831212935 | 77 | 0.0 | 0.0 | 0.00 | 0.00 | 0.00 | 59 | 1017.9 | |
| 20260831211921 | 76 | 0.0 | 0.0 | 0.00 | 0.00 | 0.00 | 61 | 1017.9 | |
| 20260831210941 | 76 | 0.0 | 0.0 | 0.00 | 0.00 | 0.00 | 58 | 1018.0 | |
| 20260831205947 | 76 | 297 | 1.0 | 2.0 | 0.00 | 0.00 | 0.00 | 56 | 1017.9 |
| 20260831204947 | 77 | 348 | 1.0 | 2.0 | 0.00 | 0.00 | 0.00 | 55 | 1018.2 |
| 20260831203921 | 77 | 328 | 1.0 | 2.0 | 0.00 | 0.00 | 0.00 | 56 | 1018.0 |
| 20260831202926 | 76 | 296 | 1.0 | 2.0 | 0.00 | 0.00 | 0.00 | 57 | 1018.1 |
| 20260831201938 | 76 | 327 | 0.0 | 1.0 | 0.00 | 0.00 | 0.00 | 59 | 1018.1 |
| 20260831200940 | 76 | 287 | 1.0 | 2.0 | 0.00 | 0.00 | 0.00 | 59 | 1018.1 |
| 20260831195957 | 75 | 0.0 | 1.0 | 0.00 | 0.00 | 0.00 | 61 | 1018.1 | |
| 20260831194923 | 75 | 270 | 1.0 | 2.0 | 0.00 | 0.00 | 0.00 | 59 | 1018.3 |
| 20260831193943 | 76 | 251 | 1.0 | 2.0 | 0.00 | 0.00 | 0.00 | 57 | 1018.4 |
| 20260831192929 | 76 | 283 | 1.0 | 1.0 | 0.00 | 0.00 | 0.00 | 59 | 1018.4 |
| 20260831192008 | 75 | 276 | 1.0 | 1.0 | 0.00 | 0.00 | 0.00 | 61 | 1018.6 |
| 20260831190934 | 74 | 269 | 1.0 | 2.0 | 0.00 | 0.00 | 0.00 | 61 | 1018.5 |
| 20260831185920 | 75 | 280 | 1.0 | 1.0 | 0.00 | 0.00 | 0.00 | 60 | 1018.9 |
| 20260831184959 | 75 | 261 | 2.0 | 3.0 | 0.00 | 0.00 | 0.00 | 59 | 1018.8 |
| 20260831183958 | 74 | 287 | 0.0 | 3.0 | 0.00 | 0.00 | 0.00 | 60 | 1019.1 |
| 20260831182944 | 75 | 258 | 1.0 | 2.0 | 0.00 | 0.00 | 0.00 | 60 | 1019.1 |
| 20260831181930 | 74 | 278 | 1.0 | 2.0 | 0.00 | 0.00 | 0.00 | 60 | 1019.2 |
| 20260831181029 | 74 | 277 | 0.0 | 1.0 | 0.00 | 0.00 | 0.00 | 60 | 1019.0 |
| 20260831180015 | 75 | 277 | 1.0 | 2.0 | 0.00 | 0.00 | 0.00 | 59 | 1019.2 |
| 20260831174954 | 74 | 271 | 2.0 | 3.0 | 0.00 | 0.00 | 0.00 | 58 | 1019.1 |
| 20260831173939 | 75 | 263 | 0.0 | 2.0 | 0.00 | 0.00 | 0.00 | 58 | 1019.3 |
| 20260831172926 | 74 | 281 | 1.0 | 2.0 | 0.00 | 0.00 | 0.00 | 58 | 1019.4 |
| 20260831171945 | 73 | 0.0 | 0.0 | 0.00 | 0.00 | 0.00 | 60 | 1019.3 | |
| 20260831170951 | 74 | 290 | 1.0 | 2.0 | 0.00 | 0.00 | 0.00 | 59 | 1019.4 |
| 20260831165950 | 73 | 273 | 1.0 | 2.0 | 0.00 | 0.00 | 0.00 | 58 | 1019.7 |
| 20260831164936 | 73 | 0.0 | 1.0 | 0.00 | 0.00 | 0.00 | 62 | 1019.6 | |
| 20260831163955 | 73 | 259 | 0.0 | 2.0 | 0.00 | 0.00 | 0.00 | 60 | 1019.8 |
| 20260831162940 | 72 | 357 | 1.0 | 1.0 | 0.00 | 0.00 | 0.00 | 61 | 1019.9 |
| 20260831161926 | 72 | 0.0 | 2.0 | 0.00 | 0.00 | 0.00 | 62 | 1019.9 | |
| 20260831160944 | 72 | 237 | 1.0 | 2.0 | 0.00 | 0.00 | 0.00 | 64 | 1020.2 |
| 20260831155948 | 71 | 260 | 2.0 | 3.0 | 0.00 | 0.00 | 0.00 | 61 | 1020.1 |
| 20260831154947 | 70 | 0.0 | 0.0 | 0.00 | 0.00 | 0.00 | 64 | 1020.1 | |
| 20260831153932 | 70 | 335 | 1.0 | 2.0 | 0.00 | 0.00 | 0.00 | 68 | 1020.1 |
| 20260831153011 | 70 | 0.0 | 0.0 | 0.00 | 0.00 | 0.00 | 68 | 1020.4 | |
| 20260831151955 | 69 | 0.0 | 1.0 | 0.00 | 0.00 | 0.00 | 67 | 1020.4 | |
| 20260831150954 | 69 | 325 | 1.0 | 2.0 | 0.00 | 0.00 | 0.00 | 71 | 1020.4 |
| 20260831145939 | 68 | 301 | 0.0 | 2.0 | 0.00 | 0.00 | 0.00 | 72 | 1020.3 |
| 20260831144959 | 67 | 0.0 | 0.0 | 0.00 | 0.00 | 0.00 | 78 | 1020.2 | |
| 20260831143945 | 66 | 0.0 | 0.0 | 0.00 | 0.00 | 0.00 | 79 | 1020.3 | |
| 20260831142931 | 62 | 0.0 | 1.0 | 0.00 | 0.00 | 0.00 | 92 | 1020.3 | |
| 20260831141950 | 62 | 0.0 | 0.0 | 0.00 | 0.00 | 0.00 | 97 | 1020.2 | |
| 20260831140936 | 62 | 0.0 | 0.0 | 0.00 | 0.00 | 0.00 | 98 | 1020.2 | |
| 20260831140015 | 62 | 296 | 0.0 | 1.0 | 0.00 | 0.00 | 0.00 | 98 | 1020.1 |
| 20260831134941 | 62 | 0.0 | 0.0 | 0.00 | 0.00 | 0.00 | 99 | 1020.3 | |
| 20260831134000 | 62 | 0.0 | 0.0 | 0.00 | 0.00 | 0.00 | 99 | 1020.1 | |
| 20260831132946 | 61 | 0.0 | 0.0 | 0.00 | 0.00 | 0.00 | 99 | 1020.2 | |
| 20260831131932 | 62 | 0.0 | 0.0 | 0.00 | 0.00 | 0.00 | 99 | 1020.0 | |
| 20260831130952 | 62 | 0.0 | 0.0 | 0.00 | 0.00 | 0.00 | 99 | 1020.1 | |
| 20260831125937 | 62 | 0.0 | 0.0 | 0.00 | 0.00 | 0.00 | 99 | 1020.3 | |
| 20260831124957 | 62 | 0.0 | 0.0 | 0.00 | 0.00 | 0.00 | 99 | 1020.0 | |
| 20260831123943 | 63 | 0.0 | 0.0 | 0.00 | 0.00 | 0.00 | 99 | 1020.0 | |
| 20260831123002 | 63 | 0.0 | 0.0 | 0.00 | 0.00 | 0.00 | 99 | 1020.0 | |
| 20260831121949 | 63 | 0.0 | 0.0 | 0.00 | 0.00 | 0.00 | 99 | 1019.7 | |
| 20260831121008 | 63 | 0.0 | 0.0 | 0.00 | 0.00 | 0.00 | 99 | 1019.5 | |
| 20260831115954 | 62 | 0.0 | 0.0 | 0.00 | 0.00 | 0.00 | 99 | 1019.7 | |
| 20260831114940 | 62 | 0.0 | 0.0 | 0.00 | 0.00 | 0.00 | 99 | 1019.6 | |
| 20260831114019 | 62 | 0.0 | 0.0 | 0.00 | 0.00 | 0.00 | 99 | 1019.5 | |
| 20260831112946 | 62 | 0.0 | 0.0 | 0.00 | 0.00 | 0.00 | 99 | 1019.6 | |
| 20260831112005 | 62 | 0.0 | 0.0 | 0.00 | 0.00 | 0.00 | 99 | 1019.4 | |
| 20260831110951 | 61 | 0.0 | 0.0 | 0.00 | 0.00 | 0.00 | 99 | 1019.4 | |
| 20260831105937 | 61 | 0.0 | 0.0 | 0.00 | 0.00 | 0.00 | 99 | 1019.4 | |
| 20260831104957 | 61 | 0.0 | 0.0 | 0.00 | 0.00 | 0.00 | 99 | 1019.2 | |
| 20260831103942 | 61 | 0.0 | 0.0 | 0.00 | 0.00 | 0.00 | 99 | 1018.9 | |
| 20260831103002 | 61 | 0.0 | 0.0 | 0.00 | 0.00 | 0.00 | 99 | 1019.1 | |
| 20260831102008 | 61 | 0.0 | 0.0 | 0.00 | 0.00 | 0.00 | 98 | 1018.8 |